Hourly Weather Roundup
Issued by NWS Central Illinois

Home | Current Version | Previous Version | Text Only | Print | Product List | Glossary On
Versions: 1 2 3 4 5 6 7 8 9 10 11 12 13 14 15 16 17 18 19 20 21 22 23 24 25 26 27 28 29 30 31 32 33 34 35 36 37 38 39 40 41 42 43 44 45 46 47 48 49 50
000
NZUS43 KILX 232110
HWRILX

Area Weather Roundup
National Weather Service Lincoln IL
400 PM CDT SUN APR 23 2017

NOTE:  "FAIR" indicates few or no clouds below 12,000 feet, with
       no sigificant weather and/or obstructions to visibility.


CITY           SKY/WX    TMP DP  RH WIND       PRES   REMARKS
Bloomington    SUNNY     72  26  18 NE14G20   30.04F
Champaign      SUNNY     73  29  19 N14       30.02F
Danville       SUNNY     70  31  23 NE9       30.00F
Decatur        SUNNY     71  34  25 NE10G22   30.02F
Effingham      SUNNY     73  32  22 N12G22    29.99F
Flora          SUNNY     72  32  22 NE16G23   29.97S
Galesburg      SUNNY     71  31  23 NE3       30.03F
Jacksonville   SUNNY     70  25  18 NW6       30.04F
Lacon          SUNNY     71  32  24 N6        30.03F
Lawrenceville  SUNNY     72  33  24 NE20G26   29.94F
Litchfield     SUNNY     70  33  25 NE12G18   30.02F
$$


CITY           SKY/WX    TMP DP  RH WIND       PRES   REMARKS
Lincoln        SUNNY     73  33  23 E8        30.03F
Macomb         SUNNY     72  29  20 NE5       30.06F
Mattoon        SUNNY     71  28  20 NE18G29   29.99F
Mt Carmel AP   SUNNY     71  33  24 N12G21    29.93F
Olney-Noble AP SUNNY     71  31  23 N17G24    29.96F
Paris AP       SUNNY     72  29  20 NE13G21   30.01F
Peoria         SUNNY     71  28  20 VRB6      30.04F
Pontiac        SUNNY     71  22  15 CALM      30.04F
Rantoul        SUNNY     73  27  18 NE14G20   30.03F
Robinson       SUNNY     71  30  21 NE16G23   29.96F
Springfield    SUNNY     73  29  19 E10       30.03F
Taylorville    SUNNY     72  28  19 NE6       30.02F
$$

...REGIONAL REPORTS...


CITY           SKY/WX    TMP DP  RH WIND       PRES   REMARKS
Chicago O`Hare SUNNY     71  32  23 E9        30.03F
Kankakee       SUNNY     71  23  16 NE6       30.05S
Moline         SUNNY     71  30  21 VRB3      30.03F
Mount Sterling SUNNY     70  28  21 NE7       30.04F
Mount Vernon   SUNNY     71  34  25 NE12G20   29.96F
Pittsfield     SUNNY     70  28  20 N9        30.06F
Quincy         SUNNY     71  25  17 VRB6      30.04F
Rockford       MOSUNNY   72  35  25 W3        30.04F
$$


CITY           SKY/WX    TMP DP  RH WIND       PRES   REMARKS
Burlington     SUNNY     70  27  20 VRB3      30.04F
Cedar Rapids   SUNNY     71  32  23 VRB3      30.02F
Des Moines     PTSUNNY   73  33  23 S13G23    30.01F
Kirksville     SUNNY     71  32  23 E6        30.06F
Ottumwa        SUNNY     71  32  23 VRB6      30.04F
St Louis       SUNNY     73  32  22 N14G23    30.03F
$$


CITY           SKY/WX    TMP DP  RH WIND       PRES   REMARKS
Terre Haute    SUNNY     71  29  21 N16G23    29.98F
Evansville     SUNNY     72  34  24 NE21G28   29.91F
Indianapolis   MOSUNNY   70  34  26 NE16G22   29.97F
Lafayette      SUNNY     67  34  29 NE13      30.03F
Madison        MOSUNNY   70  30  22 NW7       30.01F
Milwaukee      MOSUNNY   45  37  73 N15G23    30.09F
$$






USA.gov is the U.S. government's official web portal to all federal, state and local government web resources and services.